^^
Station Historical Data
Daily Summary for May 20, 2017 Units:  English    Metric   Both
« Previous Day
Next Day »
Daily Weekly Monthly Yearly Custom
  High: Low: Average:
Temperature: 63.7 °F 34.8 °F 49.7 °F
Dew Point: 41.7 °F 31.2 °F 34.9 °F
Humidity: 89% 31% 61%
Wind Speed: 19.6mph 0.0mph 3.6mph
Wind Gust: 19.6mph - -
Wind- - SSW
Pressure: 30.09 in 29.86 in -
Precipitation: 0.00 in    
Historical Graphs
 
 
Tabular Data for May 20, 2017
Time Temperature Dew Point Pressure Wind Wind Speed Wind Gust Humidity Rainfall Rate (Hourly) solar Conditions
00:03 39.3 °F 33.3 °F 30.09 in Calm     79% 0.00 in WeatherDisplay:10.37 W/m2 RA
00:08 39.1 °F 33.1 °F 30.09 in NNW 2.3 mph 2.3 mph 79% 0.00 in WeatherDisplay:10.37 W/m2 RA
00:13 39.0 °F 33.0 °F 30.09 in Calm     79% 0.00 in WeatherDisplay:10.37 W/m2 CLR
00:18 38.9 °F 32.9 °F 30.08 in Calm     79% 0.00 in WeatherDisplay:10.37 W/m2 CLR
00:23 38.9 °F 33.3 °F 30.08 in NNW 1.2 mph   80% 0.00 in WeatherDisplay:10.37 W/m2 CLR
00:29 38.8 °F 33.2 °F 30.08 in Calm     80% 0.00 in WeatherDisplay:10.37 W/m2 CLR
00:34 38.8 °F 33.2 °F 30.08 in Calm     80% 0.00 in WeatherDisplay:10.37 W/m2 CLR
00:39 38.7 °F 33.1 °F 30.08 in Calm     80% 0.00 in WeatherDisplay:10.37 W/m2 CLR
00:44 38.7 °F 33.1 °F 30.08 in Calm     80% 0.00 in WeatherDisplay:10.37 W/m2 CLR
00:49 38.6 °F 33.0 °F 30.08 in Calm     80% 0.00 in WeatherDisplay:10.37 W/m2 CLR
00:54 38.6 °F 33.3 °F 30.08 in Calm     81% 0.00 in WeatherDisplay:10.37 W/m2 CLR
00:55 38.6 °F 33.3 °F 30.08 in Calm     81% 0.00 in WeatherDisplay:10.37 W/m2 CLR
01:00 38.7 °F 33.4 °F 30.08 in Calm     81% 0.00 in WeatherDisplay:10.37 W/m2 CLR
01:05 38.7 °F 33.4 °F 30.06 in Calm     81% 0.00 in WeatherDisplay:10.37 W/m2 CLR
01:10 38.8 °F 33.5 °F 30.05 in NNW 1.2 mph   81% 0.00 in WeatherDisplay:10.37 W/m2 CLR
01:15 38.8 °F 33.5 °F 30.05 in Calm     81% 0.00 in WeatherDisplay:10.37 W/m2 CLR
01:20 38.7 °F 33.1 °F 30.05 in Calm     80% 0.00 in WeatherDisplay:10.37 W/m2 CLR
01:21 38.7 °F 33.1 °F 30.05 in Calm     80% 0.00 in WeatherDisplay:10.37 W/m2 CLR
01:26 38.6 °F 33.3 °F 30.05 in NNW 1.2 mph 1.2 mph 81% 0.00 in WeatherDisplay:10.37 W/m2 CLR
01:31 38.6 °F 33.0 °F 30.05 in NNW 1.2 mph   80% 0.00 in WeatherDisplay:10.37 W/m2 CLR
01:36 38.8 °F 32.8 °F 30.05 in Calm     79% 0.00 in WeatherDisplay:10.37 W/m2 CLR
01:41 38.8 °F 32.8 °F 30.05 in Calm     79% 0.00 in WeatherDisplay:10.37 W/m2 CLR
01:46 38.8 °F 32.8 °F 30.05 in Calm     79% 0.00 in WeatherDisplay:10.37 W/m2 CLR
01:51 38.7 °F 33.1 °F 30.05 in Calm     80% 0.00 in WeatherDisplay:10.37 W/m2 CLR
01:56 38.6 °F 33.0 °F 30.05 in Calm     80% 0.00 in WeatherDisplay:10.37 W/m2 CLR
02:01 38.5 °F 33.2 °F 30.06 in Calm     81% 0.00 in WeatherDisplay:10.37 W/m2 CLR
02:06 38.3 °F 33.3 °F 30.06 in Calm     82% 0.00 in WeatherDisplay:10.37 W/m2 CLR
02:11 38.2 °F 33.2 °F 30.05 in Calm     82% 0.00 in WeatherDisplay:10.37 W/m2 CLR
02:16 38.0 °F 33.3 °F 30.05 in Calm     83% 0.00 in WeatherDisplay:10.37 W/m2 CLR
02:21 37.9 °F 33.2 °F 30.05 in Calm     83% 0.00 in WeatherDisplay:10.37 W/m2 CLR
02:26 37.8 °F 33.4 °F 30.05 in Calm     84% 0.00 in WeatherDisplay:10.37 W/m2 CLR
02:32 37.8 °F 33.4 °F 30.04 in Calm     84% 0.00 in WeatherDisplay:10.37 W/m2 CLR
02:37 37.7 °F 33.3 °F 30.04 in NW 1.2 mph   84% 0.00 in WeatherDisplay:10.37 W/m2 CLR
02:38 37.6 °F 33.2 °F 30.04 in Calm     84% 0.00 in WeatherDisplay:10.37 W/m2 CLR
02:43 37.6 °F 33.2 °F 30.04 in West 2.3 mph 2.3 mph 84% 0.00 in WeatherDisplay:10.37 W/m2 CLR
02:49 37.4 °F 33.0 °F 30.05 in Calm     84% 0.00 in WeatherDisplay:10.37 W/m2 CLR
02:50 37.4 °F 33.0 °F 30.05 in Calm     84% 0.00 in WeatherDisplay:10.37 W/m2 CLR
02:55 37.3 °F 32.9 °F 30.05 in Calm     84% 0.00 in WeatherDisplay:10.37 W/m2 CLR
03:00 37.3 °F 32.9 °F 30.05 in Calm     84% 0.00 in WeatherDisplay:10.37 W/m2 CLR
03:05 37.2 °F 33.1 °F 30.05 in Calm     85% 0.00 in WeatherDisplay:10.37 W/m2 CLR
03:10 37.1 °F 32.7 °F 30.05 in Calm     84% 0.00 in WeatherDisplay:10.37 W/m2 CLR
03:15 37.1 °F 33.0 °F 30.05 in Calm     85% 0.00 in WeatherDisplay:10.37 W/m2 CLR
03:20 37.0 °F 32.9 °F 30.05 in Calm     85% 0.00 in WeatherDisplay:10.37 W/m2 CLR
03:25 37.0 °F 33.2 °F 30.05 in Calm     86% 0.00 in WeatherDisplay:10.37 W/m2 CLR
03:30 37.0 °F 33.2 °F 30.05 in Calm     86% 0.00 in WeatherDisplay:10.37 W/m2 CLR
03:35 37.0 °F 33.2 °F 30.05 in Calm     86% 0.00 in WeatherDisplay:10.37 W/m2 CLR
03:40 37.0 °F 33.2 °F 30.05 in Calm     86% 0.00 in WeatherDisplay:10.37 W/m2 CLR
03:45 37.0 °F 33.2 °F 30.05 in Calm     86% 0.00 in WeatherDisplay:10.37 W/m2 CLR
03:50 37.0 °F 33.2 °F 30.05 in Calm     86% 0.00 in WeatherDisplay:10.37 W/m2 CLR
03:55 37.0 °F 33.2 °F 30.05 in Calm     86% 0.00 in WeatherDisplay:10.37 W/m2 CLR
04:00 37.1 °F 33.6 °F 30.05 in Calm     87% 0.00 in WeatherDisplay:10.37 W/m2 CLR
04:02 37.1 °F 33.6 °F 30.04 in Calm     87% 0.00 in WeatherDisplay:10.37 W/m2 CLR
04:07 37.1 °F 33.6 °F 30.04 in Calm     87% 0.00 in WeatherDisplay:10.37 W/m2 CLR
04:12 37.1 °F 33.3 °F 30.03 in Calm     86% 0.00 in WeatherDisplay:10.37 W/m2 CLR
04:17 37.1 °F 33.3 °F 30.03 in Calm     86% 0.00 in WeatherDisplay:10.37 W/m2 CLR
04:22 37.1 °F 33.0 °F 30.03 in Calm     85% 0.00 in WeatherDisplay:10.37 W/m2 CLR
04:27 37.0 °F 32.9 °F 30.03 in Calm     85% 0.00 in WeatherDisplay:10.37 W/m2 CLR
04:32 36.8 °F 33.0 °F 30.02 in Calm     86% 0.00 in WeatherDisplay:10.37 W/m2 CLR
04:37 36.7 °F 32.9 °F 30.03 in West 1.2 mph   86% 0.00 in WeatherDisplay:10.37 W/m2 CLR
04:42 36.6 °F 32.8 °F 30.03 in Calm     86% 0.00 in WeatherDisplay:10.37 W/m2 CLR
04:47 36.5 °F 32.4 °F 30.03 in Calm     85% 0.00 in WeatherDisplay:10.37 W/m2 CLR
04:52 36.4 °F 32.3 °F 30.04 in Calm     85% 0.00 in WeatherDisplay:10.37 W/m2 CLR
04:57 36.2 °F 32.4 °F 30.04 in Calm     86% 0.00 in WeatherDisplay:10.37 W/m2 CLR
05:02 36.1 °F 32.3 °F 30.04 in Calm     86% 0.00 in WeatherDisplay:10.37 W/m2 CLR
05:07 35.9 °F 32.1 °F 30.04 in Calm     86% 0.00 in WeatherDisplay:10.37 W/m2 CLR
05:12 35.6 °F 31.8 °F 30.04 in Calm     86% 0.00 in WeatherDisplay:10.37 W/m2 CLR
05:17 35.3 °F 31.5 °F 30.05 in Calm     86% 0.00 in WeatherDisplay:10.37 W/m2 CLR
05:22 35.1 °F 31.3 °F 30.05 in Calm     86% 0.00 in WeatherDisplay:10.37 W/m2 CLR
05:27 34.8 °F 31.3 °F 30.05 in Calm     87% 0.00 in WeatherDisplay:10.37 W/m2 CLR
05:32 34.8 °F 31.6 °F 30.05 in Calm     88% 0.00 in WeatherDisplay:10.37 W/m2 CLR
05:37 34.8 °F 31.6 °F 30.05 in Calm     88% 0.00 in WeatherDisplay:10.37 W/m2 CLR
05:42 34.8 °F 31.9 °F 30.05 in West 1.0 mph 1.0 mph 89% 0.00 in WeatherDisplay:10.37 W/m2 CLR
05:47 34.8 °F 31.9 °F 30.05 in Calm     89% 0.00 in WeatherDisplay:10.37 W/m2 CLR
05:52 34.9 °F 32.0 °F 30.05 in West 1.2 mph 1.2 mph 89% 0.00 in WeatherDisplay:10.37 W/m2 CLR
05:57 35.0 °F 32.1 °F 30.05 in Calm     89% 0.00 in WeatherDisplay:10.37 W/m2 CLR
06:02 35.1 °F 32.2 °F 30.04 in Calm     89% 0.00 in WeatherDisplay:10.37 W/m2 CLR
06:07 35.2 °F 32.3 °F 30.04 in Calm     89% 0.00 in WeatherDisplay:10.37 W/m2 CLR
06:12 35.4 °F 32.5 °F 30.04 in Calm     89% 0.00 in WeatherDisplay:10.37 W/m2 CLR
06:17 35.7 °F 32.8 °F 30.03 in Calm     89% 0.00 in WeatherDisplay:10.37 W/m2 CLR
06:22 35.9 °F 33.0 °F 30.03 in Calm     89% 0.00 in WeatherDisplay:10.37 W/m2 CLR
06:27 36.1 °F 32.9 °F 30.03 in Calm     88% 0.00 in WeatherDisplay:10.37 W/m2 CLR
06:32 36.3 °F 33.1 °F 30.03 in Calm     88% 0.00 in WeatherDisplay:10.37 W/m2 CLR
06:37 36.5 °F 33.3 °F 30.03 in West 1.2 mph   88% 0.00 in WeatherDisplay:10.37 W/m2 CLR
06:42 36.7 °F 33.5 °F 30.03 in Calm     88% 0.00 in WeatherDisplay:10.37 W/m2 CLR
06:47 37.0 °F 33.8 °F 30.03 in West 2.3 mph 2.3 mph 88% 0.00 in WeatherDisplay:10.37 W/m2 CLR
06:52 37.3 °F 34.1 °F 30.03 in West 1.2 mph   88% 0.00 in WeatherDisplay:10.37 W/m2 CLR
06:53 37.3 °F 34.1 °F 30.03 in Calm   0.2 mph 88% 0.00 in WeatherDisplay:10.37 W/m2 CLR
06:58 37.6 °F 34.4 °F 30.02 in West 3.5 mph 3.5 mph 88% 0.00 in WeatherDisplay:10.37 W/m2 CLR
07:03 37.8 °F 34.3 °F 30.03 in West 2.3 mph 2.3 mph 87% 0.00 in WeatherDisplay:10.37 W/m2 CLR
07:08 38.0 °F 34.2 °F 30.03 in West 3.5 mph 3.5 mph 86% 0.00 in WeatherDisplay:10.37 W/m2 CLR
07:13 38.2 °F 34.4 °F 30.02 in West 3.5 mph 3.5 mph 86% 0.00 in WeatherDisplay:10.37 W/m2 CLR
07:18 38.4 °F 34.6 °F 30.03 in West 3.5 mph 3.5 mph 86% 0.00 in WeatherDisplay:10.37 W/m2 CLR
07:23 38.7 °F 34.9 °F 30.01 in WNW 1.0 mph 1.0 mph 86% 0.00 in WeatherDisplay:10.37 W/m2 CLR
07:28 38.9 °F 35.1 °F 30.02 in West 2.3 mph 2.3 mph 86% 0.00 in WeatherDisplay:10.37 W/m2 CLR
07:33 39.2 °F 35.4 °F 30.02 in Calm     86% 0.00 in WeatherDisplay:10.37 W/m2 CLR
07:38 39.5 °F 35.7 °F 30.01 in SW 1.0 mph 1.3 mph 86% 0.00 in WeatherDisplay:10.37 W/m2 CLR
07:43 39.8 °F 35.7 °F 30.02 in WSW 3.5 mph 3.5 mph 85% 0.00 in WeatherDisplay:10.37 W/m2 CLR
07:48 40.0 °F 35.6 °F 30.01 in WSW 2.3 mph 2.3 mph 84% 0.00 in WeatherDisplay:10.37 W/m2 CLR
07:53 40.0 °F 35.6 °F 30.02 in SW 2.3 mph 2.3 mph 84% 0.00 in WeatherDisplay:10.37 W/m2 CLR
07:58 40.2 °F 35.8 °F 30.02 in SW 1.2 mph   84% 0.00 in WeatherDisplay:10.37 W/m2 CLR
08:03 40.4 °F 35.6 °F 30.02 in SW 2.3 mph 2.3 mph 83% 0.00 in WeatherDisplay:10.37 W/m2 CLR
08:08 40.6 °F 36.1 °F 30.02 in SW 2.3 mph 2.3 mph 84% 0.00 in WeatherDisplay:10.37 W/m2 CLR
08:13 40.8 °F 36.0 °F 30.02 in SW 2.3 mph 2.3 mph 83% 0.00 in WeatherDisplay:10.37 W/m2 CLR
08:18 41.0 °F 36.2 °F 30.02 in SW 3.5 mph 3.5 mph 83% 0.00 in WeatherDisplay:10.37 W/m2 CLR
08:23 41.2 °F 36.1 °F 30.02 in SW 1.2 mph 1.2 mph 82% 0.00 in WeatherDisplay:10.37 W/m2 CLR
08:28 41.5 °F 36.4 °F 30.02 in SW 2.3 mph 2.3 mph 82% 0.00 in WeatherDisplay:10.37 W/m2 CLR
08:33 41.6 °F 36.5 °F 30.01 in SW 1.2 mph 1.2 mph 82% 0.00 in WeatherDisplay:10.37 W/m2 CLR
08:38 41.9 °F 36.5 °F 30.01 in SW 1.2 mph 1.2 mph 81% 0.00 in WeatherDisplay:10.37 W/m2 CLR
08:43 42.1 °F 36.4 °F 30.01 in SW 2.3 mph   80% 0.00 in WeatherDisplay:10.37 W/m2 CLR
08:48 42.3 °F 35.9 °F 30.01 in SW 2.3 mph 2.3 mph 78% 0.00 in WeatherDisplay:10.37 W/m2 CLR
08:53 42.3 °F 35.9 °F 30.01 in SW 1.2 mph   78% 0.00 in WeatherDisplay:10.37 W/m2 CLR
08:58 42.7 °F 36.3 °F 30.01 in SW 2.3 mph 2.3 mph 78% 0.00 in WeatherDisplay:10.37 W/m2 CLR
09:03 43.4 °F 37.3 °F 30.01 in SSE 4.0 mph 4.0 mph 79% 0.00 in WeatherDisplay:10.37 W/m2 CLR
09:08 44.1 °F 36.7 °F 30.00 in South 1.2 mph   75% 0.00 in WeatherDisplay:10.37 W/m2 CLR
09:09 44.2 °F 37.1 °F 30.00 in South 2.3 mph 2.3 mph 76% 0.00 in WeatherDisplay:10.37 W/m2 CLR
09:14 45.2 °F 37.1 °F 30.00 in South 1.2 mph 1.2 mph 73% 0.00 in WeatherDisplay:10.37 W/m2 CLR
09:19 46.2 °F 37.0 °F 29.99 in South 2.3 mph 2.3 mph 70% 0.00 in WeatherDisplay:10.37 W/m2 CLR
09:24 47.1 °F 37.8 °F 29.99 in West 2.3 mph 2.3 mph 70% 0.00 in WeatherDisplay:10.37 W/m2 CLR
09:29 47.9 °F 37.8 °F 29.98 in West 1.2 mph 1.2 mph 68% 0.00 in WeatherDisplay:10.37 W/m2 CLR
09:34 48.6 °F 37.4 °F 29.98 in NNW 4.0 mph 4.0 mph 65% 0.00 in WeatherDisplay:10.37 W/m2 CLR
09:39 49.4 °F 36.9 °F 29.97 in West 2.3 mph 2.3 mph 62% 0.00 in WeatherDisplay:10.37 W/m2 CLR
09:44 49.8 °F 36.5 °F 29.96 in NNW 3.5 mph 3.5 mph 60% 0.00 in WeatherDisplay:10.37 W/m2 CLR
09:49 50.2 °F 36.0 °F 29.96 in North 4.6 mph 4.6 mph 58% 0.00 in WeatherDisplay:10.37 W/m2 CLR
09:54 50.3 °F 36.5 °F 29.96 in NNW 6.9 mph 6.9 mph 59% 0.00 in WeatherDisplay:10.37 W/m2 CLR
09:59 50.4 °F 38.3 °F 29.96 in NE 3.0 mph 3.0 mph 63% 0.00 in WeatherDisplay:10.37 W/m2 CLR
10:04 50.8 °F 36.1 °F 29.95 in NNW 3.5 mph 3.5 mph 57% 0.00 in WeatherDisplay:10.37 W/m2 CLR
10:09 51.5 °F 36.3 °F 29.94 in North 5.0 mph 5.0 mph 56% 0.00 in WeatherDisplay:10.37 W/m2 CLR
10:14 52.6 °F 35.0 °F 29.95 in North 3.5 mph 3.5 mph 51% 0.00 in WeatherDisplay:10.37 W/m2 CLR
10:19 53.3 °F 34.6 °F 29.94 in NNW 12.7 mph 12.7 mph 49% 0.00 in WeatherDisplay:10.37 W/m2 CLR
10:24 53.8 °F 38.0 °F 29.93 in NNW 4.6 mph 4.6 mph 55% 0.00 in WeatherDisplay:10.37 W/m2 CLR
10:29 54.0 °F 38.2 °F 29.93 in WNW 4.0 mph 4.0 mph 55% 0.00 in WeatherDisplay:10.37 W/m2 CLR
10:34 54.1 °F 38.3 °F 29.93 in NNW 3.5 mph 3.5 mph 55% 0.00 in WeatherDisplay:10.37 W/m2 CLR
10:39 54.1 °F 38.7 °F 29.93 in West 4.6 mph 4.6 mph 56% 0.00 in WeatherDisplay:10.37 W/m2 CLR
10:44 54.2 °F 38.8 °F 29.93 in West 3.5 mph 3.5 mph 56% 0.00 in WeatherDisplay:10.37 W/m2 CLR
10:49 54.4 °F 40.8 °F 29.92 in West 1.2 mph 1.2 mph 60% 0.00 in WeatherDisplay:10.37 W/m2 CLR
10:54 54.4 °F 39.5 °F 29.92 in SW 4.6 mph 4.6 mph 57% 0.00 in WeatherDisplay:10.37 W/m2 CLR
10:59 54.4 °F 39.0 °F 29.93 in SW 5.0 mph 5.0 mph 56% 0.00 in WeatherDisplay:10.37 W/m2 CLR
11:04 54.4 °F 39.9 °F 29.94 in WSW 4.6 mph 4.6 mph 58% 0.00 in WeatherDisplay:10.37 W/m2 CLR
11:09 54.2 °F 37.9 °F 29.93 in West 5.8 mph 5.8 mph 54% 0.00 in WeatherDisplay:10.37 W/m2 CLR
11:14 54.5 °F 39.6 °F 29.92 in West 5.0 mph 5.0 mph 57% 0.00 in WeatherDisplay:10.37 W/m2 CLR
11:19 55.2 °F 39.8 °F 29.93 in WNW 5.8 mph 5.8 mph 56% 0.00 in WeatherDisplay:10.37 W/m2 CLR
11:25 55.5 °F 38.6 °F 29.93 in WSW 6.9 mph 6.9 mph 53% 0.00 in WeatherDisplay:10.37 W/m2 CLR
11:30 55.7 °F 38.8 °F 29.92 in SSW 5.8 mph 5.8 mph 53% 0.00 in WeatherDisplay:10.37 W/m2 CLR
11:35 55.5 °F 39.6 °F 29.92 in SW 5.8 mph 5.8 mph 55% 0.00 in WeatherDisplay:10.37 W/m2 CLR
11:40 55.7 °F 39.3 °F 29.92 in West 5.8 mph 5.8 mph 54% 0.00 in WeatherDisplay:10.37 W/m2 CLR
11:45 55.9 °F 39.5 °F 29.92 in SW 4.6 mph 4.6 mph 54% 0.00 in WeatherDisplay:10.37 W/m2 CLR
11:50 56.0 °F 39.6 °F 29.92 in WSW 8.1 mph 8.1 mph 54% 0.00 in WeatherDisplay:10.37 W/m2 CLR
11:55 56.2 °F 37.3 °F 29.92 in SSW 5.8 mph 5.8 mph 49% 0.00 in WeatherDisplay:10.37 W/m2 CLR
12:00 56.5 °F 38.6 °F 29.91 in West 5.0 mph 5.0 mph 51% 0.00 in WeatherDisplay:10.37 W/m2 CLR
12:05 56.8 °F 37.8 °F 29.91 in West 6.0 mph 6.0 mph 49% 0.00 in WeatherDisplay:10.37 W/m2 CLR
12:10 57.0 °F 39.0 °F 29.91 in WSW 3.5 mph 3.7 mph 51% 0.00 in WeatherDisplay:10.37 W/m2 CLR
12:15 57.3 °F 37.8 °F 29.90 in West 5.8 mph 5.8 mph 48% 0.00 in WeatherDisplay:10.37 W/m2 CLR
12:20 57.7 °F 38.7 °F 29.90 in North 8.1 mph 8.1 mph 49% 0.00 in WeatherDisplay:10.37 W/m2 CLR
12:25 58.3 °F 38.1 °F 29.90 in West 6.9 mph 6.9 mph 47% 0.00 in WeatherDisplay:10.37 W/m2 CLR
12:30 58.9 °F 38.1 °F 29.89 in WSW 5.8 mph 5.8 mph 46% 0.00 in WeatherDisplay:10.37 W/m2 CLR
12:35 59.0 °F 37.7 °F 29.89 in WSW 9.2 mph 9.2 mph 45% 0.00 in WeatherDisplay:10.37 W/m2 CLR
12:40 59.0 °F 35.9 °F 29.89 in NNW 6.9 mph 6.9 mph 42% 0.00 in WeatherDisplay:10.37 W/m2 CLR
12:45 59.0 °F 37.7 °F 29.89 in NW 3.5 mph 3.5 mph 45% 0.00 in WeatherDisplay:10.37 W/m2 CLR
12:50 58.7 °F 36.2 °F 29.89 in ENE 3.5 mph 3.5 mph 43% 0.00 in WeatherDisplay:10.37 W/m2 CLR
12:55 58.1 °F 35.7 °F 29.90 in North 3.5 mph 3.5 mph 43% 0.00 in WeatherDisplay:10.37 W/m2 CLR
13:00 58.5 °F 37.2 °F 29.89 in North 4.6 mph 4.6 mph 45% 0.00 in WeatherDisplay:10.37 W/m2 CLR
13:05 59.0 °F 35.3 °F 29.89 in North 3.5 mph 3.5 mph 41% 0.00 in WeatherDisplay:10.37 W/m2 CLR
13:10 59.0 °F 34.1 °F 29.89 in NNE 5.8 mph 5.8 mph 39% 0.00 in WeatherDisplay:10.37 W/m2 CLR
13:15 59.7 °F 34.0 °F 29.88 in North 5.8 mph 5.8 mph 38% 0.00 in WeatherDisplay:10.37 W/m2 CLR
13:16 59.7 °F 34.0 °F 29.88 in North 5.8 mph 5.8 mph 38% 0.00 in WeatherDisplay:10.37 W/m2 CLR
13:21 59.9 °F 34.9 °F 29.89 in North 10.4 mph 10.4 mph 39% 0.00 in WeatherDisplay:10.37 W/m2 CLR
13:26 60.5 °F 37.3 °F 29.88 in NW 7.0 mph 7.0 mph 42% 0.00 in WeatherDisplay:10.37 W/m2 CLR
13:31 60.7 °F 36.8 °F 29.87 in West 4.6 mph 4.6 mph 41% 0.00 in WeatherDisplay:10.37 W/m2 CLR
13:36 61.0 °F 41.7 °F 29.86 in NW 2.3 mph 2.3 mph 49% 0.00 in WeatherDisplay:10.37 W/m2 CLR
13:41 61.0 °F 34.5 °F 29.87 in NW 4.6 mph 4.6 mph 37% 0.00 in WeatherDisplay:10.37 W/m2 CLR
13:46 60.7 °F 34.3 °F 29.87 in North 5.8 mph 5.8 mph 37% 0.00 in WeatherDisplay:10.37 W/m2 CLR
13:51 60.4 °F 34.0 °F 29.87 in North 6.9 mph 6.9 mph 37% 0.00 in WeatherDisplay:10.37 W/m2 CLR
13:56 60.9 °F 35.1 °F 29.87 in WNW 6.9 mph 6.9 mph 38% 0.00 in WeatherDisplay:10.37 W/m2 CLR
14:01 61.3 °F 38.6 °F 29.87 in NNE 4.0 mph 4.0 mph 43% 0.00 in WeatherDisplay:10.37 W/m2 CLR
14:06 61.1 °F 35.3 °F 29.88 in North 11.5 mph 11.5 mph 38% 0.00 in WeatherDisplay:10.37 W/m2 CLR
14:11 60.9 °F 36.4 °F 29.88 in West 4.6 mph 4.6 mph 40% 0.00 in WeatherDisplay:10.37 W/m2 CLR
14:16 60.8 °F 36.9 °F 29.88 in NNW 10.4 mph 10.4 mph 41% 0.00 in WeatherDisplay:10.37 W/m2 CLR
14:21 60.7 °F 34.9 °F 29.88 in North 9.2 mph 9.2 mph 38% 0.00 in WeatherDisplay:10.37 W/m2 CLR
14:26 61.0 °F 38.3 °F 29.88 in NNE 8.0 mph 8.0 mph 43% 0.00 in WeatherDisplay:10.37 W/m2 CLR
14:31 61.8 °F 37.8 °F 29.87 in NNE 5.0 mph 5.0 mph 41% 0.00 in WeatherDisplay:10.37 W/m2 CLR
14:36 62.4 °F 36.4 °F 29.88 in West 3.5 mph 3.5 mph 38% 0.00 in WeatherDisplay:10.37 W/m2 CLR
14:41 62.9 °F 35.5 °F 29.87 in NW 3.5 mph 3.5 mph 36% 0.00 in WeatherDisplay:10.37 W/m2 CLR
14:46 62.7 °F 34.6 °F 29.87 in NNW 11.5 mph 11.5 mph 35% 0.00 in WeatherDisplay:10.37 W/m2 CLR
14:51 62.2 °F 35.6 °F 29.88 in WNW 2.3 mph 2.3 mph 37% 0.00 in WeatherDisplay:10.37 W/m2 CLR
14:56 62.6 °F 35.9 °F 29.87 in ENE 5.8 mph 5.8 mph 37% 0.00 in WeatherDisplay:10.37 W/m2 CLR
15:01 62.9 °F 36.2 °F 29.87 in West 4.6 mph 4.6 mph 37% 0.00 in WeatherDisplay:10.37 W/m2 CLR
15:06 63.1 °F 35.7 °F 29.87 in NNW 6.0 mph 6.0 mph 36% 0.00 in WeatherDisplay:10.37 W/m2 CLR
15:11 62.9 °F 35.5 °F 29.87 in NW 5.8 mph 5.8 mph 36% 0.00 in WeatherDisplay:10.37 W/m2 CLR
15:16 62.8 °F 34.7 °F 29.87 in WNW 9.2 mph 9.2 mph 35% 0.00 in WeatherDisplay:10.37 W/m2 CLR
15:21 62.9 °F 34.8 °F 29.86 in North 3.5 mph 3.5 mph 35% 0.00 in WeatherDisplay:10.37 W/m2 CLR
15:26 63.4 °F 34.5 °F 29.87 in NNE 10.4 mph 10.4 mph 34% 0.00 in WeatherDisplay:10.37 W/m2 CLR
15:31 63.4 °F 35.2 °F 29.87 in WNW 6.9 mph 6.9 mph 35% 0.00 in WeatherDisplay:10.37 W/m2 CLR
15:36 63.4 °F 35.2 °F 29.87 in NNW 6.9 mph 6.9 mph 35% 0.00 in WeatherDisplay:10.37 W/m2 CLR
15:41 63.4 °F 35.2 °F 29.87 in NE 5.8 mph 5.8 mph 35% 0.00 in WeatherDisplay:10.37 W/m2 CLR
15:46 63.7 °F 34.8 °F 29.87 in NNW 6.9 mph 6.9 mph 34% 0.00 in WeatherDisplay:10.37 W/m2 CLR
15:51 63.5 °F 34.6 °F 29.87 in North 11.5 mph 11.5 mph 34% 0.00 in WeatherDisplay:10.37 W/m2 CLR
15:56 62.9 °F 33.3 °F 29.86 in NNE 11.5 mph 11.5 mph 33% 0.00 in WeatherDisplay:10.37 W/m2 CLR
16:01 62.8 °F 33.2 °F 29.88 in North 6.9 mph 6.9 mph 33% 0.00 in WeatherDisplay:10.37 W/m2 CLR
16:06 63.0 °F 32.7 °F 29.88 in North 5.0 mph 5.0 mph 32% 0.00 in WeatherDisplay:10.37 W/m2 CLR
16:11 62.7 °F 32.4 °F 29.88 in North 16.1 mph 16.1 mph 32% 0.00 in WeatherDisplay:10.37 W/m2 CLR
16:16 62.3 °F 32.8 °F 29.88 in NNW 11.5 mph 11.5 mph 33% 0.00 in WeatherDisplay:10.37 W/m2 CLR
16:21 62.5 °F 35.2 °F 29.88 in NW 5.8 mph 5.8 mph 36% 0.00 in WeatherDisplay:10.37 W/m2 CLR
16:26 62.7 °F 33.2 °F 29.88 in NE 13.8 mph 13.8 mph 33% 0.00 in WeatherDisplay:10.37 W/m2 CLR
16:31 62.5 °F 33.7 °F 29.88 in North 4.6 mph 4.6 mph 34% 0.00 in WeatherDisplay:10.37 W/m2 CLR
16:36 62.8 °F 33.2 °F 29.88 in NNE 11.5 mph 11.5 mph 33% 0.00 in WeatherDisplay:10.37 W/m2 CLR
16:41 62.9 °F 32.6 °F 29.88 in NW 6.9 mph 6.9 mph 32% 0.00 in WeatherDisplay:10.37 W/m2 CLR
16:46 63.1 °F 31.9 °F 29.88 in NNE 6.9 mph 6.9 mph 31% 0.00 in WeatherDisplay:10.37 W/m2 CLR
16:51 63.0 °F 32.7 °F 29.88 in North 11.5 mph 11.5 mph 32% 0.00 in WeatherDisplay:10.37 W/m2 CLR
16:56 62.7 °F 33.2 °F 29.88 in NW 4.6 mph 6.0 mph 33% 0.00 in WeatherDisplay:10.37 W/m2 CLR
17:01 63.0 °F 31.9 °F 29.88 in NNW 8.1 mph 8.1 mph 31% 0.00 in WeatherDisplay:10.37 W/m2 CLR
17:06 63.1 °F 31.9 °F 29.88 in North 11.5 mph 11.5 mph 31% 0.00 in WeatherDisplay:10.37 W/m2 CLR
17:11 63.0 °F 32.7 °F 29.88 in North 9.2 mph 9.2 mph 32% 0.00 in WeatherDisplay:10.37 W/m2 CLR
17:16 63.0 °F 32.7 °F 29.88 in North 10.4 mph 10.4 mph 32% 0.00 in WeatherDisplay:10.37 W/m2 CLR
17:21 63.2 °F 32.0 °F 29.88 in NW 13.8 mph 13.8 mph 31% 0.00 in WeatherDisplay:10.37 W/m2 CLR
17:26 63.1 °F 32.7 °F 29.88 in North 11.5 mph 11.5 mph 32% 0.00 in WeatherDisplay:10.37 W/m2 CLR
17:31 63.1 °F 32.7 °F 29.88 in NNE 11.5 mph 11.5 mph 32% 0.00 in WeatherDisplay:10.37 W/m2 CLR
17:36 63.0 °F 32.7 °F 29.88 in NNW 13.0 mph 13.0 mph 32% 0.00 in WeatherDisplay:10.37 W/m2 CLR
17:41 62.9 °F 32.6 °F 29.88 in North 11.5 mph 11.5 mph 32% 0.00 in WeatherDisplay:10.37 W/m2 CLR
17:46 62.7 °F 32.4 °F 29.88 in North 11.5 mph 11.5 mph 32% 0.00 in WeatherDisplay:10.37 W/m2 CLR
17:48 62.6 °F 31.5 °F 29.88 in NW 15.0 mph 15.0 mph 31% 0.00 in WeatherDisplay:10.37 W/m2 CLR
17:53 62.3 °F 32.0 °F 29.89 in NNE 19.6 mph 19.6 mph 32% 0.00 in WeatherDisplay:10.37 W/m2 CLR
17:58 62.3 °F 31.3 °F 29.89 in North 12.0 mph 12.0 mph 31% 0.00 in WeatherDisplay:10.37 W/m2 CLR
18:03 62.4 °F 32.1 °F 29.87 in NNE 6.9 mph 6.9 mph 32% 0.00 in WeatherDisplay:10.37 W/m2 CLR
18:08 62.3 °F 32.0 °F 29.87 in North 11.0 mph 11.0 mph 32% 0.00 in WeatherDisplay:10.37 W/m2 CLR
18:13 62.2 °F 32.0 °F 29.87 in North 14.0 mph 14.0 mph 32% 0.00 in WeatherDisplay:10.37 W/m2 CLR
18:18 61.8 °F 32.4 °F 29.87 in NNE 13.8 mph 13.8 mph 33% 0.00 in WeatherDisplay:10.37 W/m2 CLR
18:23 61.3 °F 31.2 °F 29.88 in NNW 12.7 mph 12.7 mph 32% 0.00 in WeatherDisplay:10.37 W/m2 CLR
18:28 60.9 °F 31.6 °F 29.89 in NNW 4.6 mph 4.6 mph 33% 0.00 in WeatherDisplay:10.37 W/m2 CLR
18:33 60.6 °F 32.1 °F 29.89 in NNE 15.0 mph 15.0 mph 34% 0.00 in WeatherDisplay:10.37 W/m2 CLR
18:38 60.3 °F 32.5 °F 29.89 in NNE 10.4 mph 10.4 mph 35% 0.00 in WeatherDisplay:10.37 W/m2 CLR
18:43 60.2 °F 32.4 °F 29.89 in North 11.5 mph 11.5 mph 35% 0.00 in WeatherDisplay:10.37 W/m2 CLR
18:48 60.2 °F 32.4 °F 29.89 in NNW 10.4 mph 10.4 mph 35% 0.00 in WeatherDisplay:10.37 W/m2 CLR
18:53 60.1 °F 33.0 °F 29.89 in NNE 10.4 mph 10.4 mph 36% 0.00 in WeatherDisplay:10.37 W/m2 CLR
18:58 60.2 °F 32.4 °F 29.90 in NNE 10.4 mph 10.4 mph 35% 0.00 in WeatherDisplay:10.37 W/m2 CLR
19:03 60.4 °F 33.3 °F 29.88 in NNW 5.8 mph 5.8 mph 36% 0.00 in WeatherDisplay:10.37 W/m2 CLR
19:08 60.5 °F 32.7 °F 29.88 in NNE 5.8 mph 5.8 mph 35% 0.00 in WeatherDisplay:10.37 W/m2 CLR
19:13 60.7 °F 33.6 °F 29.88 in NNE 9.2 mph 9.2 mph 36% 0.00 in WeatherDisplay:10.37 W/m2 CLR
19:18 60.6 °F 32.8 °F 29.89 in NNW 9.2 mph 9.2 mph 35% 0.00 in WeatherDisplay:10.37 W/m2 CLR
19:23 60.5 °F 33.4 °F 29.89 in North 9.2 mph 9.2 mph 36% 0.00 in WeatherDisplay:10.37 W/m2 CLR
19:28 60.3 °F 33.9 °F 29.89 in North 8.1 mph 8.1 mph 37% 0.00 in WeatherDisplay:10.37 W/m2 CLR
19:33 60.1 °F 33.0 °F 29.90 in North 9.2 mph 9.2 mph 36% 0.00 in WeatherDisplay:10.37 W/m2 CLR
19:38 59.8 °F 34.1 °F 29.89 in North 4.6 mph 4.6 mph 38% 0.00 in WeatherDisplay:10.37 W/m2 CLR
19:43 59.4 °F 35.7 °F 29.90 in North 2.3 mph 2.3 mph 41% 0.00 in WeatherDisplay:10.37 W/m2 CLR
19:48 59.0 °F 35.9 °F 29.91 in North 1.2 mph 1.2 mph 42% 0.00 in WeatherDisplay:10.37 W/m2 CLR
19:53 58.7 °F 35.7 °F 29.91 in NW 2.3 mph   42% 0.00 in WeatherDisplay:10.37 W/m2 CLR
19:58 58.4 °F 36.0 °F 29.91 in North 1.2 mph 1.2 mph 43% 0.00 in WeatherDisplay:10.37 W/m2 CLR
20:03 58.2 °F 35.8 °F 29.90 in North 3.5 mph 3.5 mph 43% 0.00 in WeatherDisplay:10.37 W/m2 CLR
20:08 58.1 °F 36.3 °F 29.90 in NNW 1.2 mph 1.2 mph 44% 0.00 in WeatherDisplay:10.37 W/m2 CLR
20:13 57.9 °F 36.1 °F 29.91 in NNE 2.3 mph 2.3 mph 44% 0.00 in WeatherDisplay:10.37 W/m2 CLR
20:18 57.7 °F 38.1 °F 29.91 in NNE 1.2 mph   48% 0.00 in WeatherDisplay:10.37 W/m2 CLR
20:23 57.1 °F 37.0 °F 29.92 in North 1.2 mph   47% 0.00 in WeatherDisplay:10.37 W/m2 CLR
20:28 56.5 °F 36.0 °F 29.92 in Calm   0.2 mph 46% 0.00 in WeatherDisplay:10.37 W/m2 CLR
20:33 55.9 °F 35.9 °F 29.93 in North 2.3 mph   47% 0.00 in WeatherDisplay:10.37 W/m2 CLR
20:38 55.4 °F 36.0 °F 29.94 in NNE 2.3 mph   48% 0.00 in WeatherDisplay:10.37 W/m2 CLR
20:43 55.0 °F 35.7 °F 29.94 in NNE 1.2 mph 1.2 mph 48% 0.00 in WeatherDisplay:10.37 W/m2 CLR
20:48 54.5 °F 35.7 °F 29.94 in NNE 2.3 mph 2.3 mph 49% 0.00 in WeatherDisplay:10.37 W/m2 CLR
20:53 54.1 °F 35.9 °F 29.95 in Calm     50% 0.00 in WeatherDisplay:10.37 W/m2 CLR
20:58 53.8 °F 35.6 °F 29.96 in NE 2.3 mph 2.3 mph 50% 0.00 in WeatherDisplay:10.37 W/m2 CLR
21:03 53.6 °F 35.9 °F 29.92 in NE 2.0 mph 2.0 mph 51% 0.00 in WeatherDisplay:10.37 W/m2 CLR
21:08 53.3 °F 35.6 °F 29.92 in Calm     51% 0.00 in WeatherDisplay:10.37 W/m2 CLR
21:13 53.1 °F 35.9 °F 29.92 in NE 1.2 mph   52% 0.00 in WeatherDisplay:10.37 W/m2 CLR
21:18 53.0 °F 34.8 °F 29.92 in NE 3.5 mph 3.5 mph 50% 0.00 in WeatherDisplay:10.37 W/m2 CLR
21:23 52.9 °F 35.2 °F 29.92 in Calm     51% 0.00 in WeatherDisplay:10.37 W/m2 CLR
21:28 52.8 °F 34.7 °F 29.93 in Calm     50% 0.00 in WeatherDisplay:10.37 W/m2 CLR
21:33 52.7 °F 35.6 °F 29.93 in ENE 2.0 mph 2.0 mph 52% 0.00 in WeatherDisplay:10.37 W/m2 CLR
21:38 52.5 °F 36.8 °F 29.92 in ENE 2.3 mph 2.3 mph 55% 0.00 in WeatherDisplay:10.37 W/m2 CLR
21:43 52.3 °F 37.1 °F 29.94 in Calm     56% 0.00 in WeatherDisplay:10.37 W/m2 CLR
21:48 52.1 °F 37.3 °F 29.94 in Calm     57% 0.00 in WeatherDisplay:10.37 W/m2 CLR
21:53 51.9 °F 36.2 °F 29.95 in Calm     55% 0.00 in WeatherDisplay:10.37 W/m2 CLR
21:56 51.9 °F 36.2 °F 29.95 in Calm     55% 0.00 in WeatherDisplay:10.37 W/m2 CLR
21:59 51.8 °F 36.6 °F 29.95 in Calm     56% 0.00 in WeatherDisplay:10.37 W/m2 CLR
22:04 51.7 °F 36.9 °F 29.93 in Calm     57% 0.00 in WeatherDisplay:10.37 W/m2 CLR
22:09 51.6 °F 36.9 °F 29.93 in Calm     57% 0.00 in WeatherDisplay:10.37 W/m2 CLR
22:14 51.5 °F 36.8 °F 29.94 in Calm     57% 0.00 in WeatherDisplay:10.37 W/m2 CLR
22:19 51.4 °F 38.0 °F 29.95 in Calm     60% 0.00 in WeatherDisplay:10.37 W/m2 CLR
22:24 51.2 °F 36.9 °F 29.95 in ENE 2.3 mph 2.3 mph 58% 0.00 in WeatherDisplay:10.37 W/m2 CLR
22:29 51.2 °F 36.9 °F 29.95 in ENE 3.5 mph 3.5 mph 58% 0.00 in WeatherDisplay:10.37 W/m2 CLR
22:34 51.1 °F 37.3 °F 29.95 in ENE 1.2 mph 1.2 mph 59% 0.00 in WeatherDisplay:10.37 W/m2 CLR
22:39 51.0 °F 36.7 °F 29.95 in Calm   0.3 mph 58% 0.00 in WeatherDisplay:10.37 W/m2 CLR
22:44 50.8 °F 37.0 °F 29.95 in ENE 1.2 mph   59% 0.00 in WeatherDisplay:10.37 W/m2 CLR
22:49 50.5 °F 37.1 °F 29.95 in ENE 1.2 mph   60% 0.00 in WeatherDisplay:10.37 W/m2 CLR
22:53 50.3 °F 36.5 °F 29.95 in Calm     59% 0.00 in WeatherDisplay:10.37 W/m2 CLR
22:58 50.1 °F 36.3 °F 29.95 in ENE 1.0 mph 1.0 mph 59% 0.00 in WeatherDisplay:10.37 W/m2 CLR
23:03 50.1 °F 36.7 °F 29.94 in ENE 1.2 mph   60% 0.00 in WeatherDisplay:10.37 W/m2 CLR
23:08 50.0 °F 37.1 °F 29.94 in Calm     61% 0.00 in WeatherDisplay:10.37 W/m2 CLR
23:13 49.8 °F 36.5 °F 29.94 in Calm     60% 0.00 in WeatherDisplay:10.37 W/m2 CLR
23:18 49.6 °F 37.9 °F 29.94 in Calm     64% 0.00 in WeatherDisplay:10.37 W/m2 CLR
23:23 49.4 °F 38.9 °F 29.94 in Calm     67% 0.00 in WeatherDisplay:10.37 W/m2 CLR
23:28 49.0 °F 39.6 °F 29.94 in Calm     70% 0.00 in WeatherDisplay:10.37 W/m2 CLR
23:33 48.7 °F 38.2 °F 29.94 in Calm     67% 0.00 in WeatherDisplay:10.37 W/m2 CLR
23:38 48.5 °F 37.3 °F 29.94 in ENE 1.0 mph   65% 0.00 in WeatherDisplay:10.37 W/m2 CLR
23:43 48.4 °F 37.9 °F 29.95 in ESE 1.2 mph   67% 0.00 in WeatherDisplay:10.37 W/m2 CLR
23:48 48.3 °F 38.2 °F 29.95 in ESE 1.2 mph 1.2 mph 68% 0.00 in WeatherDisplay:10.37 W/m2 CLR
23:53 48.2 °F 38.9 °F 29.96 in SSE 2.3 mph 2.3 mph 70% 0.00 in WeatherDisplay:10.37 W/m2 CLR
23:58 48.1 °F 38.4 °F 29.96 in South 4.6 mph 4.6 mph 69% 0.00 in WeatherDisplay:10.37 W/m2 CLR
Windsor Co Weather
Compliments of Weather Underground - 3 mb